GFSFLT2_850_thetae_114.txt.gz
Theta_e
321 319 318 317 315 313 312 312 311 310 309 307 306 306 305 305 305 304 304 304 303 303 299 294 295 303 307
321 318 317 313 312 312 311 311 310 309 307 305 305 305 305 304 303 303 303 303 302 299 294 294 299 305 308
321 317 315 312 311 310 310 310 309 307 305 305 304 304 303 303 302 302 302 302 300 294 293 296 305 308 309
315 315 314 312 311 310 309 309 308 307 305 304 303 303 303 302 302 301 301 300 294 293 293 302 307 308 310
314 313 312 311 311 310 308 308 307 306 305 303 303 303 302 302 301 301 300 295 291 292 292 303 308 310 310
312 312 311 311 311 310 308 308 307 306 304 304 303 302 302 301 301 300 297 291 291 291 292 304 307 308 310
310 310 311 311 311 311 309 308 309 305 303 303 302 302 301 301 300 296 291 290 290 290 292 303 307 307 309
308 309 309 309 308 308 307 306 305 303 302 301 301 301 300 299 296 292 290 289 290 290 291 296 305 308 309
306 307 306 307 306 306 305 303 301 301 301 299 300 300 300 298 294 290 290 290 290 291 290 291 300 305 307
304 304 303 305 304 304 303 302 300 300 299 298 299 299 298 296 291 290 290 290 291 291 291 290 291 299 305
302 302 302 301 301 301 301 299 300 299 299 298 298 298 297 290 290 290 291 291 291 291 291 291 291 291 297
301 301 301 300 299 299 299 298 297 298 298 297 297 298 297 294 290 290 291 291 292 291 291 292 292 291 291
300 301 300 299 300 297 297 297 297 297 297 296 296 296 290 290 290 291 291 292 291 290 291 291 291 291 291
299 299 299 298 297 296 295 294 294 296 296 296 296 296 291 288 289 291 293 293 294 292 292 291 292 291 291
298 297 297 297 295 295 293 291 291 294 295 296 296 294 289 288 288 292 293 292 292 292 293 293 292 290 291
297 297 297 297 296 294 293 291 289 289 290 291 291 291 288 287 288 291 291 291 292 293 293 293 293 292 292
296 296 296 296 294 293 292 291 289 289 288 289 289 288 287 287 288 291 290 291 292 292 292 292 292 293 293

GFSFLT2_850_thetae_120.txt.gz
Theta_e
321 320 321 322 321 321 322 322 321 321 319 318 316 314 311 311 310 309 307 306 305 305 304 304 303 303 297
318 318 318 319 319 320 320 320 319 319 318 317 316 313 312 310 310 308 306 306 305 304 303 303 302 297 294
314 315 315 316 317 318 319 318 317 317 317 316 315 312 311 310 308 306 305 304 303 303 303 302 299 294 296
311 311 311 312 313 314 315 315 316 315 313 314 313 312 310 309 308 307 305 304 303 303 301 301 294 294 298
308 308 309 310 310 311 312 313 313 313 312 311 310 309 309 308 308 307 305 303 303 302 301 296 293 294 303
305 307 308 309 309 309 310 310 309 312 310 310 310 309 308 308 308 307 305 303 302 301 300 291 293 294 306
303 303 303 305 307 307 307 308 308 308 310 309 310 309 308 308 306 306 304 303 301 301 297 290 292 294 304
299 300 301 303 304 304 305 306 306 306 306 306 309 309 307 306 304 303 302 301 301 300 291 290 291 293 302
297 298 299 301 302 303 302 304 304 305 304 303 303 305 303 303 303 301 301 300 300 294 289 290 290 291 302
295 296 296 299 300 301 302 302 303 303 303 302 301 301 300 300 300 300 300 299 298 291 289 290 290 290 297
295 295 296 297 299 300 300 300 302 302 302 301 300 299 299 300 298 299 298 297 294 289 289 290 290 290 293
295 296 297 297 299 299 299 299 299 299 299 299 299 300 299 298 295 297 297 295 291 289 290 290 291 290 291
293 295 296 296 297 298 298 298 298 298 297 297 298 298 297 297 295 291 296 294 289 289 290 290 290 290 290
293 294 295 296 296 296 297 296 296 297 296 295 295 295 296 296 297 297 291 290 289 290 290 290 290 290 291
292 293 294 295 295 295 296 295 294 294 295 295 295 294 295 294 293 295 291 289 289 290 290 290 290 290 290
290 291 293 293 294 294 294 293 293 293 294 294 295 293 294 293 292 288 288 288 290 289 289 290 290 290 290
288 289 292 293 293 293 294 292 292 292 292 293 293 293 293 292 290 287 288 288 289 289 289 289 289 289 289

GFSFLT2_850_thetae_123.txt.gz
Theta_e
320 319 319 318 318 318 318 318 319 320 321 321 320 321 320 319 316 313 312 311 309 308 307 307 305 304 304
316 315 314 314 313 315 314 316 317 317 319 319 319 319 319 318 316 314 311 310 309 307 306 306 305 304 303
309 309 309 308 308 309 309 311 312 314 316 316 316 316 316 316 315 313 312 310 308 306 306 305 304 303 303
306 308 307 307 308 308 307 308 310 310 311 313 314 312 313 313 312 311 310 309 307 306 306 305 303 302 302
302 301 301 301 303 304 305 307 308 308 309 309 310 312 310 309 310 310 310 308 307 305 306 305 303 302 298
301 301 302 301 301 302 303 303 304 305 306 306 308 309 310 309 308 309 309 308 307 305 306 305 303 301 295
297 298 298 299 299 300 301 302 303 303 304 305 305 306 306 306 307 307 308 306 304 305 304 303 302 299 291
293 294 296 296 296 297 298 300 301 302 303 304 304 304 305 305 305 303 305 303 303 303 304 303 301 294 292
292 292 292 293 295 296 297 298 299 300 301 301 302 303 303 303 303 300 300 301 301 302 301 301 298 291 290
293 292 293 293 296 296 296 297 298 299 300 301 301 302 300 301 300 300 299 300 300 300 300 300 290 290 291
291 292 293 294 295 296 296 297 298 298 298 299 299 300 299 299 300 299 298 298 298 298 299 294 289 290 290
290 292 292 293 294 296 296 297 298 297 297 297 297 298 298 298 297 297 295 294 294 297 294 290 289 290 290
290 291 292 292 294 296 296 296 297 297 296 297 296 297 296 295 296 296 294 293 294 295 290 289 289 290 290
288 289 291 292 293 294 295 295 295 295 295 295 295 295 294 294 294 295 293 293 293 293 288 289 289 290 290
287 287 289 292 293 294 294 294 293 293 293 293 294 294 293 293 293 293 293 294 290 291 288 289 289 290 290
286 287 288 289 292 293 293 293 293 292 292 292 293 293 292 292 292 291 291 289 288 288 289 289 289 289 290
286 286 287 288 290 291 292 292 292 292 291 291 292 291 292 291 291 289 288 288 288 288 288 289 289 289 289

GFSFLT2_850_thetae_126.txt.gz
Theta_e
321 320 319 319 318 316 313 311 311 312 315 317 317 318 319 319 320 320 319 319 318 315 313 312 310 309 307
315 313 311 308 307 306 305 305 305 305 306 308 311 312 315 315 317 317 317 317 316 314 313 311 309 307 306
303 301 300 299 298 297 297 298 300 303 306 308 310 311 312 312 313 314 315 315 314 313 312 310 308 306 305
296 296 297 298 301 301 300 300 300 299 300 302 305 307 307 308 310 311 311 311 312 312 311 309 307 306 305
295 296 297 297 297 299 300 299 299 302 301 301 300 302 303 305 307 308 309 309 310 310 310 308 307 307 305
294 294 294 296 297 296 296 296 296 297 298 299 300 301 302 303 303 305 306 307 309 308 307 305 305 305 305
292 293 292 293 294 294 293 295 295 296 297 297 298 299 300 302 303 304 304 304 306 307 305 303 304 304 304
292 292 292 292 292 293 295 296 296 296 296 297 299 297 300 300 301 302 303 302 304 304 303 301 300 301 301
291 291 291 292 293 293 293 294 295 295 297 296 298 298 299 300 301 301 302 301 301 302 300 300 300 300 300
291 291 291 292 292 293 293 294 294 294 296 296 297 297 298 299 299 299 300 298 298 298 298 297 299 299 296
290 291 291 292 292 292 293 295 295 295 296 296 295 296 297 297 297 298 298 297 296 296 296 297 297 297 289
289 289 290 290 292 292 293 294 295 295 296 296 295 296 296 296 296 296 296 297 294 294 294 295 296 289 289
287 287 287 289 291 291 293 294 294 295 295 294 295 295 294 294 294 294 294 294 293 293 293 295 290 289 289
286 286 286 287 290 291 292 293 294 294 293 293 293 293 292 293 293 293 293 293 292 292 293 289 288 289 289
285 285 286 287 287 290 291 292 293 293 293 292 292 293 292 291 292 292 293 293 292 290 290 288 288 289 289
284 285 285 286 286 288 290 291 292 292 293 292 292 291 290 290 291 291 291 291 291 290 287 287 288 288 289
284 284 285 286 286 287 289 290 291 291 291 291 290 290 290 290 290 291 290 289 288 287 287 287 288 288 289